sat.trackr.live / text

‹ back to catalog

STARLINK-31881

NORAD 59659 · 2024-084F

PAYLOAD ACTIVE UNKNOWN

§ Identity

Operator
Country
US
Launch date
2024-05-06
Launch site
AFETR
Launch vehicle
Mass (kg)
RCS (m²)

Purposes: comms

External: N2YO · Heavens-Above · Gunter

§ Orbital elements

Epoch: 2026-05-24T21:44:12.638112Z

Period
94.27 min
Inclination
43.0033°
Eccentricity
0.0001230
Mean motion
15.27575312 rev/d
Perigee alt
482.2 km
Apogee alt
483.9 km
Semi-major
6,861.2 km
B*
-1.2539e-5
RAAN
327.5430°
Arg perigee
257.2884°
Mean anomaly
102.7830°
Rev number
11,607

§ Raw data

STARLINK-318811 59659U 24084F   26144.90570183 -.00000607  00000+0 -12539-4 0  99902 59659  43.0033 327.5430 0001230 257.2884 102.7830 15.27575312116079

JSON: /api/v1/satellites/59659 · /tle

For live sub-satellite position, see the globe view (requires WebGL).

§ Visibility from observer

Set your observer location to see the next 7 days of passes ≥ 10°. The values pass through the URL so the page stays shareable.

No JS? Fill the form by hand. The geolocation button needs JavaScript.